Tracking 28052 objects as of 24-Sep-2023
HD Live streaming from Space Station
objects crossing your sky now

THORAD DELTA 1 DEB

Track THORAD DELTA 1 DEB now!
10-day predictions


NORAD ID: 8404
Int'l Code: 1974-089CG
Perigee: 1,211.3 km
Apogee: 1,324.6 km
Inclination: 100.7 °
Period: 110.7 minutes
Semi major axis: 7638 km
RCS: 0.0827 m2 (small)
Launch date: November 15, 1974
Source: United States (US)
Launch site: AIR FORCE WESTERN TEST RANGE (AFWTR)

Note: This is SATELLITE DEBRIS
Your satellite tracking list
Your tracking list is empty




NASA's NSSDC Master Catalog

Two Line Element Set (TLE):
1 08404U 74089CG  23267.44452551  .00003072  00000-0  10172-1 0  9998
2 08404 100.7030 231.8582 0074186 280.0851 201.2555 13.00333497267376
Source of the keplerian elements: AFSPC